Home > Weather > Kyiv > Past weeks

Flag for Ukraine Past Weather in Kyiv, Ukraine — Yesterday and Last 2 Weeks

Now
82 °F

Passing clouds.


Feels Like: 83 °F
Forecast: 66 / 87 °F
Wind: 3 mph from South

Location: Kyiv

Current Time: Jun 26, 2016 at 8:24:58 PM

Latest Report: Jun 26, 2016 at 8:00 PM


Visibility: N/A

Pressure: 30.01 "Hg

Humidity: 48%

Dew Point: 61 °F

Location of KyivLocation

Past Weather in Kyiv — Graph

°F

Kyiv Temperature Yesterday

Maximum temperature yesterday: 84 °F (at 3:30 PM)
Minimum temperature yesterday: 59 °F (at 5:00 AM)
Average temperature yesterday: 75 °F

High & Low Weather Summary for the Past Weeks

 TemperatureHumidityPressure
High90 °F (Jun 21, 3:00 PM)100% (Jun 13, 5:00 AM)30.30 "Hg (Jun 13, 5:00 AM)
Low45 °F (Jun 12, 3:00 AM)35% (Jun 12, 5:30 PM)29.56 "Hg (Jun 14, 11:00 PM)
Average71 °F71%30.00 "Hg
* Reported Jun 11 7:00 PM — Jun 26 7:00 PM, Kyiv, Weather by CustomWeather, © 2016

Note: Actual official high and low records may vary slightly from our data, if they occured in-between our weather recording intervals... More about our weather records

Advertising

Kyiv Weather History for the Previous 24 Hours

Scroll right to see more
 ConditionsComfort  
Time TempWeatherWind HumidityBarometerVisibility
7:00 PM
Sun, Jun 26
84 °FPassing clouds.6 mph45%30.01 "HgN/A
6:30 PM84 °FSunny.6 mph43%30.01 "Hg10 mi
6:00 PM86 °FPassing clouds.6 mph40%30.01 "HgN/A
5:30 PM86 °FPassing clouds.6 mph43%30.04 "HgN/A
5:00 PM86 °FPassing clouds.6 mph43%30.04 "HgN/A
4:30 PM86 °FPassing clouds.6 mph43%30.04 "HgN/A
4:00 PM86 °FPassing clouds.8 mph46%30.04 "HgN/A
3:30 PM84 °FPassing clouds.6 mph48%30.07 "HgN/A
3:00 PM82 °FPassing clouds.6 mph48%30.07 "HgN/A
2:30 PM84 °FPassing clouds.6 mph45%30.07 "HgN/A
2:00 PM84 °FPassing clouds.3 mph48%30.07 "HgN/A
1:30 PM84 °FPassing clouds.6 mph48%30.09 "HgN/A
1:00 PM84 °FPassing clouds.6 mph48%30.09 "HgN/A
12:30 PM84 °FPassing clouds.6 mph48%30.09 "HgN/A
12:00 PM82 °FPassing clouds.8 mph51%30.09 "HgN/A
11:30 AM81 °FPassing clouds.3 mph58%30.09 "HgN/A
11:00 AM82 °FPassing clouds.6 mph51%30.12 "HgN/A
10:30 AM82 °FPassing clouds.6 mph55%30.12 "HgN/A
10:00 AM81 °FPassing clouds.3 mph58%30.12 "HgN/A
9:30 AM81 °FPassing clouds.6 mph58%30.12 "HgN/A
9:00 AM79 °FPassing clouds.3 mph61%30.12 "HgN/A
8:30 AM77 °FPassing clouds.3 mph65%30.12 "HgN/A
8:00 AM77 °FPassing clouds.3 mph65%30.12 "HgN/A
7:30 AM75 °FPassing clouds.3 mph74%30.12 "HgN/A
7:00 AM75 °FSunny.1 mph74%30.12 "Hg10 mi
6:30 AM72 °FSunny.3 mph83%30.12 "Hg10 mi
6:00 AM68 °FSunny.3 mph88%30.12 "Hg10 mi
5:30 AM66 °FClear.No wind88%30.12 "Hg10 mi
5:00 AM66 °FClear.No wind88%30.12 "Hg10 mi
4:30 AM64 °FClear.No wind94%30.12 "Hg10 mi
4:00 AM64 °FClear.No wind88%30.12 "Hg10 mi
3:30 AM66 °FClear.No wind88%30.12 "Hg10 mi
3:00 AM64 °FClear.1 mph88%30.12 "Hg10 mi
2:30 AM66 °FClear.1 mph83%30.12 "Hg10 mi
2:00 AM70 °FPassing clouds.3 mph78%30.12 "HgN/A
1:30 AM70 °FClear.3 mph78%30.12 "Hg10 mi
1:00 AM72 °FClear.3 mph73%30.12 "Hg10 mi
12:30 AM72 °FClear.3 mph69%30.12 "Hg10 mi
12:00 AM72 °FClear.3 mph69%30.12 "Hg10 mi
11:30 PM
Sat, Jun 25
72 °FClear.3 mph69%30.12 "Hg10 mi
11:00 PM73 °FClear.3 mph69%30.12 "Hg10 mi
10:30 PM73 °FClear.3 mph65%30.12 "Hg10 mi
10:00 PM73 °FSunny.3 mph69%30.12 "Hg10 mi
9:30 PM73 °FSunny.3 mph65%30.12 "Hg10 mi
9:00 PM77 °FSunny.3 mph57%30.12 "Hg10 mi
8:30 PM79 °FSunny.1 mph54%30.12 "Hg10 mi
8:00 PM81 °FPassing clouds.3 mph51%30.12 "HgN/A
Weather by CustomWeather, © 2016

See weather overviewHow to use our weather pages